[[{"header":{"parameterUnit":"m.s-1","parameterCategory":1,"la1":30.2991,"la2":30.254,"lo1":-89.0895,"lo2":-89.0444,"dy":0.0017,"dx":0.0017,"nx":28,"ny":28,"refTime":"2025-08-06T21:00:00:Z","depth":0,"parameterNumber":2,"parameterNumberName":"U-component_of_WINDS"},"data":[0,0,0,0,0,0,0,0,0,0,0,0,0,0,0,0,0,0,0,0,0,0,0,0,0,0,0,0,0,0,0,0,0,0,0,0,0,0,0,0,0,0,0,0,0,0,0,0,0,0,0,0,0,0,0,0,0,0,2.0061,2.0059,0,1.9822,1.9819,1.9817,1.9653,1.9652,1.9651,1.9649,1.9399,1.9394,1.9388,0,0,0,0,0,0,0,0,0,0,0,0,0,2.0374,2.0369,2.0061,2.0058,2.0055,1.9823,1.9819,1.9816,1.9653,1.9652,1.965,1.9649,1.9401,1.9394,1.9388,0,0,0,0,0,0,0,0,0,0,0,0,0,2.0197,2.0367,2.0062,1.9946,1.9933,1.9823,1.9819,1.9815,1.9653,1.9652,1.965,1.9648,1.9403,1.9395,1.9387,1.9371,0,0,1.9361,1.9358,0,0,0,0,0,0,0,0,2.0207,2.0185,1.9966,1.9954,1.994,1.9766,1.9837,1.9666,1.9654,1.976,1.9649,1.9647,1.9522,1.9504,1.9463,1.9359,1.9348,1.9361,1.9355,1.9352,1.9349,0,0,0,0,0,0,0,2.0219,2.0195,1.9966,1.9963,1.9947,1.9905,1.9878,1.9804,1.9654,1.975,1.9738,1.9712,1.9514,1.9471,1.9456,1.9345,1.9361,1.9353,1.9348,1.9345,1.9216,1.9218,0,0,0,0,0,0,2.025,2.0206,1.9974,1.9959,2.0072,1.9901,1.9871,1.9823,1.9654,1.9627,1.9714,1.9705,1.9486,1.9466,1.9446,1.9416,1.9352,1.9344,1.9339,1.9215,1.9217,1.9218,0,0,0,0,0,0,2.0258,2.0231,1.9984,2.0079,2.0044,1.9898,1.9845,1.9819,1.9776,1.9626,1.9598,1.9698,1.9484,1.9458,1.9391,1.9405,1.934,1.9333,1.9213,1.9215,1.9217,1.9356,0,0,0,0,0,0,2.0267,2.0235,2.0228,2.008,2.004,1.9934,1.9846,1.9816,1.9763,1.9749,1.9604,1.9578,1.9481,1.9405,1.9383,1.9392,1.9326,1.9211,1.9214,1.9217,1.935,1.9363,1.9374,0,0,0,0,0,2.0279,2.0275,2.0228,2.0201,2.0029,1.9935,1.9912,1.9802,1.9765,1.9756,1.966,1.9582,1.9408,1.9399,1.9373,1.938,1.9209,1.9213,1.9216,1.9344,1.936,1.9374,0,0,0,0,0,0,2.0425,2.0253,2.02,2.0148,2.0058,1.9908,1.9893,1.9823,1.9739,1.973,1.9596,1.9564,1.9511,1.9439,1.9433,1.9356,1.9299,1.9298,1.9405,1.9419,1.9432,1.9449,1.9319,0,0,0,0,0,2.0453,2.0392,2.0245,2.0213,2.0171,2.0041,1.9996,1.992,1.982,1.978,1.9679,1.9584,1.9508,1.946,1.9381,1.934,1.9305,1.9332,1.9344,1.9355,1.9355,1.9327,1.9337,1.923,1.923,1.923,0,0,2.0506,2.0405,2.0374,2.024,2.0161,2.0101,2.0009,1.9949,1.9903,1.977,1.9701,1.9625,1.9509,1.9456,1.9427,1.9394,1.9377,1.936,1.937,1.9363,1.9332,1.9342,1.9351,1.9232,1.9232,1.9232,0,0,2.0572,2.0491,2.0455,2.0379,2.0262,2.0176,2.0168,2.0029,1.9974,1.9903,1.9803,1.9745,1.9617,1.9539,1.9482,1.9524,1.9449,1.9502,1.9566,1.954,1.9549,1.9556,1.9569,1.9576,1.9503,1.9503,1.9503,0,2.0653,2.0559,2.0446,2.0392,2.0336,2.0217,2.018,2.0111,1.9973,1.9937,1.9903,1.974,1.9654,1.958,1.9591,1.955,1.9536,1.9516,1.9557,1.9563,1.9567,1.9579,1.9584,1.951,1.9509,1.9509,1.9508,0,2.0664,2.0601,2.0587,2.046,2.0402,2.0358,2.0237,2.0192,2.0122,2.0039,1.9969,1.9863,1.9761,1.9738,1.9668,1.9655,1.9638,1.9583,1.9522,1.9587,1.9595,1.9599,1.952,1.9518,1.9516,1.9514,0,0,2.0812,2.0626,2.0622,2.0563,2.0427,2.0375,2.0326,2.0228,2.0192,2.0103,2.0056,1.9952,1.9901,1.9838,1.9758,1.9736,1.9775,1.9683,1.9678,1.9703,1.9753,1.9794,1.9801,1.9726,1.9727,1.9727,1.9762,0,2.0856,2.0762,2.066,2.06,2.054,2.0428,2.0384,2.0296,2.0218,2.0155,2.0069,1.9997,1.9935,1.9896,1.987,1.9776,1.9783,1.9772,1.968,1.9678,1.971,1.9805,1.9848,1.9886,1.9765,1.9765,1.9766,0,2.0894,2.0812,2.0748,2.0619,2.059,2.0553,2.0456,2.0398,2.0295,2.024,2.0172,2.0088,2.0029,1.9979,1.9895,1.989,1.9846,1.9795,1.9794,1.9778,1.9724,1.9791,1.9896,1.9901,1.977,1.977,1.9769,0,2.1007,2.0881,2.0826,2.078,2.0628,2.0605,2.054,2.0436,2.0384,2.03,2.0265,2.0175,2.0124,2.0056,1.9949,1.9922,1.9877,1.9817,1.9827,1.983,1.982,1.9822,1.9918,1.9797,1.9797,1.9797,1.9797,0,2.1065,2.103,2.0875,2.0841,2.0798,2.0682,2.0643,2.0568,2.0477,2.0425,2.0323,2.0277,2.014,2.0078,1.9994,1.9937,1.9916,1.9868,1.9846,1.9876,1.9882,1.9843,1.9837,1.9798,1.9798,1.9798,1.9797,0,2.1183,2.1078,2.101,2.0874,2.0839,2.0813,2.0695,2.0658,2.0576,2.0513,2.0491,2.0362,2.0283,2.0172,2.0058,2.0002,1.9956,1.9922,1.9992,1.9978,1.9994,1.9994,2.0067,2.007,1.9951,1.9952,1.9953,0,2.1226,2.1196,2.1058,2.1017,2.0957,2.0893,2.0841,2.0726,2.0676,2.0558,2.0535,2.0449,2.0374,2.0254,2.0148,2.0061,2.0022,2.0054,2.0008,2.004,2.0021,2.0023,2.0019,2.0065,2.0066,2.0068,2.0069,0,2.1313,2.1263,2.1193,2.1106,2.1048,2.0972,2.0892,2.0865,2.0733,2.0682,2.0601,2.0544,2.043,2.0345,2.0245,2.0176,2.01,2.0086,2.0083,2.0112,2.0153,2.0129,2.002,2.0083,2.0082,2.0081,2.008,2.0079,2.1392,2.1361,2.126,2.1185,2.1114,2.1043,2.1001,2.0916,2.0848,2.0747,2.0684,2.0607,2.0505,2.0363,2.0299,2.0236,2.0204,2.0201,2.02,2.02,2.021,2.0166,2.0217,2.0217,2.0216,2.0216,2.0215,0,2.1473,2.1403,2.1336,2.1229,2.1171,2.1109,2.1018,2.0973,2.0907,2.082,2.075,2.0658,2.0576,2.0467,2.0377,2.0348,2.0311,2.0328,2.0327,2.0313,2.0244,2.0255,2.0359,2.0359,2.0359,2.0359,2.0359,2.0359,2.1508,2.1452,2.1391,2.1299,2.1228,2.1154,2.1108,2.1041,2.0971,2.0874,2.0807,2.0738,2.0641,2.0544,2.0466,2.0436,2.0407,2.0434,2.0393,2.0331,2.0317,2.0305,2.0314,2.043,2.043,2.0466,2.0467,2.0467]},{"header":{"parameterUnit":"m.s-1","parameterCategory":1,"la1":30.2991,"la2":30.254,"lo1":-89.0895,"lo2":-89.0444,"dy":0.0017,"dx":0.0017,"nx":28,"ny":28,"refTime":"2025-08-06T21:00:00:Z","depth":0,"parameterNumber":3,"parameterNumberName":"V-component_of_WINDS"},"data":[0,0,0,0,0,0,0,0,0,0,0,0,0,0,0,0,0,0,0,0,0,0,0,0,0,0,0,0,0,0,0,0,0,0,0,0,0,0,0,0,0,0,0,0,0,0,0,0,0,0,0,0,0,0,0,0,0,0,1.6056,1.6058,0,1.6219,1.6221,1.6223,1.6287,1.6287,1.6287,1.6286,1.6442,1.6446,1.6451,0,0,0,0,0,0,0,0,0,0,0,0,0,1.5786,1.5791,1.6056,1.6058,1.606,1.6219,1.6221,1.6223,1.6288,1.6287,1.6287,1.6286,1.6441,1.6446,1.6451,0,0,0,0,0,0,0,0,0,0,0,0,0,1.5921,1.5792,1.6055,1.6111,1.6118,1.6219,1.6221,1.6224,1.6288,1.6287,1.6286,1.6286,1.6439,1.6445,1.6452,1.6506,0,0,1.6473,1.6476,0,0,0,0,0,0,0,0,1.5913,1.5931,1.6101,1.6108,1.6115,1.6233,1.6183,1.6318,1.6288,1.6223,1.6286,1.6286,1.6372,1.6384,1.6416,1.6513,1.652,1.6473,1.6477,1.648,1.6482,0,0,0,0,0,0,0,1.5904,1.5924,1.612,1.6103,1.6112,1.6124,1.6142,1.6209,1.6298,1.6228,1.6234,1.6253,1.6376,1.6409,1.642,1.6522,1.6473,1.6479,1.6483,1.6486,1.6668,1.6669,0,0,0,0,0,0,1.5887,1.5916,1.6115,1.6125,1.6011,1.6129,1.615,1.6195,1.6298,1.6313,1.6253,1.6255,1.6398,1.6412,1.6426,1.6495,1.648,1.6487,1.6491,1.6667,1.6668,1.6669,0,0,0,0,0,0,1.5881,1.5904,1.6108,1.6022,1.6049,1.6135,1.6185,1.6199,1.6233,1.6317,1.6332,1.6272,1.6398,1.6416,1.6486,1.6501,1.649,1.6496,1.6666,1.6667,1.6668,1.6633,0,0,0,0,0,0,1.5873,1.5902,1.5926,1.6022,1.6054,1.6169,1.6186,1.6202,1.6246,1.625,1.6338,1.6352,1.6399,1.6475,1.6492,1.651,1.6501,1.6665,1.6667,1.6668,1.6633,1.6633,1.6632,0,0,0,0,0,1.5863,1.5908,1.5927,1.5951,1.6087,1.617,1.6188,1.6244,1.6247,1.627,1.6323,1.6349,1.6496,1.6482,1.6501,1.6521,1.6664,1.6666,1.6668,1.6633,1.6633,1.6632,0,0,0,0,0,0,1.5808,1.5921,1.5944,1.6022,1.6086,1.6181,1.6213,1.6242,1.6304,1.6305,1.6368,1.6387,1.6451,1.6493,1.6475,1.6577,1.6582,1.6587,1.6548,1.6549,1.6548,1.6537,1.6507,0,0,0,0,0,1.5805,1.5868,1.5962,1.6021,1.6052,1.6126,1.6165,1.6203,1.6271,1.6297,1.6356,1.6417,1.6476,1.6514,1.6574,1.6638,1.6657,1.6661,1.6661,1.666,1.6665,1.6699,1.6702,1.6675,1.6674,1.6674,0,0,1.5799,1.5869,1.5904,1.6011,1.6066,1.6125,1.6149,1.6211,1.6255,1.6305,1.6376,1.642,1.6492,1.6559,1.6591,1.6595,1.6676,1.6662,1.6661,1.6666,1.6701,1.6704,1.6706,1.6676,1.6675,1.6675,0,0,1.5819,1.5879,1.5935,1.5989,1.6072,1.6121,1.6134,1.6224,1.6257,1.6329,1.6368,1.6417,1.652,1.6569,1.6608,1.6643,1.6669,1.666,1.6659,1.6692,1.6694,1.6696,1.6708,1.6712,1.6664,1.6664,1.6664,0,1.58,1.5897,1.5959,1.602,1.6064,1.6115,1.617,1.6218,1.6314,1.6342,1.6346,1.6474,1.6526,1.6605,1.6613,1.6643,1.6657,1.6652,1.669,1.6692,1.6695,1.6707,1.6711,1.6662,1.6663,1.6663,1.6663,0,1.5869,1.5934,1.5968,1.6064,1.6112,1.6169,1.6236,1.6276,1.6308,1.6355,1.6425,1.6489,1.6562,1.6583,1.6614,1.6664,1.6665,1.6678,1.6684,1.6695,1.6708,1.6713,1.666,1.6661,1.6661,1.6662,0,0,1.5861,1.599,1.6002,1.6045,1.614,1.6189,1.6245,1.6321,1.6353,1.6416,1.6463,1.6547,1.656,1.6604,1.664,1.6669,1.6692,1.6679,1.6681,1.6679,1.6749,1.6739,1.6744,1.6708,1.6709,1.671,1.6743,0,1.5894,1.6004,1.606,1.6144,1.6204,1.6251,1.63,1.636,1.6404,1.6457,1.6504,1.6563,1.6576,1.6602,1.6633,1.6683,1.6707,1.6681,1.675,1.6752,1.6732,1.6751,1.6741,1.6769,1.6748,1.6749,1.675,0,1.5948,1.6015,1.6106,1.6193,1.6219,1.6263,1.6335,1.6386,1.6454,1.6483,1.6531,1.6566,1.6623,1.6624,1.6701,1.6682,1.6713,1.6741,1.6743,1.6753,1.6752,1.676,1.6779,1.6783,1.6758,1.6757,1.6757,0,1.5933,1.6045,1.6115,1.615,1.6252,1.6282,1.6324,1.6392,1.6432,1.6493,1.6519,1.6584,1.6619,1.6667,1.6717,1.6713,1.6788,1.6793,1.6812,1.6811,1.6827,1.6826,1.6852,1.6845,1.6845,1.6845,1.6845,0,1.5965,1.6019,1.6109,1.6152,1.6212,1.6273,1.6329,1.6374,1.6433,1.6482,1.6525,1.6568,1.6632,1.6682,1.672,1.6778,1.6793,1.6816,1.6825,1.6813,1.681,1.6835,1.6834,1.6846,1.6846,1.6846,1.6846,0,1.596,1.6023,1.6101,1.6192,1.6216,1.6255,1.6331,1.6371,1.6416,1.6477,1.6494,1.6564,1.6625,1.668,1.6759,1.6785,1.6843,1.6855,1.6822,1.6827,1.6843,1.684,1.6886,1.6895,1.6882,1.6882,1.6882,0,1.5977,1.602,1.6116,1.6154,1.6197,1.6256,1.6299,1.6359,1.64,1.6479,1.6509,1.6573,1.6629,1.6723,1.6778,1.6838,1.6852,1.6863,1.6861,1.6846,1.6851,1.6849,1.6852,1.6863,1.6863,1.6863,1.6863,0,1.6,1.6029,1.6091,1.6164,1.6214,1.6273,1.6332,1.6359,1.6429,1.6472,1.6537,1.658,1.6662,1.6725,1.6791,1.683,1.6856,1.6863,1.687,1.6858,1.6837,1.6849,1.6821,1.6862,1.6862,1.6862,1.6862,1.6862,1.6007,1.6047,1.6121,1.6187,1.6239,1.6293,1.6336,1.6387,1.6444,1.6519,1.6548,1.6614,1.6675,1.6768,1.6806,1.6855,1.686,1.6871,1.6874,1.6875,1.6873,1.6829,1.6867,1.6867,1.6867,1.6867,1.6867,0,1.6032,1.6082,1.6143,1.6227,1.6278,1.6302,1.6368,1.6408,1.6467,1.6525,1.6579,1.6651,1.6711,1.677,1.6833,1.686,1.6873,1.6874,1.6873,1.6881,1.6865,1.6853,1.6862,1.6862,1.6862,1.6862,1.6862,1.6862,1.6052,1.6121,1.6158,1.625,1.6298,1.6367,1.6402,1.645,1.6497,1.6578,1.663,1.6669,1.6726,1.6792,1.6847,1.6862,1.6882,1.688,1.6898,1.6882,1.6882,1.6882,1.6871,1.6884,1.6884,1.691,1.691,1.691]}]]